Dewpoint
49 45 42 44 44 43 41 38 37 35 37 38 38 37 37 38 38 38 38 39 41 42 42 42 45 46 46 48 49 54 59 65 65 66 66 65 65 66 66 65 65 65 65 65
46 42 43 44 45 44 42 41 39 40 40 39 38 37 38 38 38 38 37 38 39 41 41 43 44 46 48 49 50 51 58 61 64 65 65 65 65 65 65 65 64 65 64 64
42 41 44 42 41 41 42 41 39 37 38 39 39 38 36 34 35 36 37 38 39 39 42 43 44 47 49 50 51 51 55 59 63 66 64 64 65 65 65 64 63 63 64 63
43 42 40 41 41 40 38 39 38 37 37 36 38 32 32 32 33 33 35 39 40 41 44 44 46 47 49 50 51 52 55 58 62 66 64 64 63 62 63 63 63 63 63 62
41 42 41 38 38 40 37 39 37 37 38 39 37 36 32 32 32 35 40 42 43 44 44 45 47 48 50 53 55 54 57 58 61 65 65 64 63 63 62 63 63 62 62 62
42 40 41 41 40 40 40 40 41 39 39 35 38 36 31 30 32 34 39 39 39 41 41 41 43 44 46 50 54 57 53 59 61 65 65 64 63 62 62 62 62 62 61 61
41 42 41 41 41 42 42 41 34 34 33 32 34 36 35 35 35 36 35 33 33 35 36 36 37 38 41 44 49 53 55 53 57 63 64 65 64 64 62 62 62 61 61 60
36 35 40 42 41 39 41 40 35 31 35 34 33 33 36 36 33 29 27 27 27 29 31 31 33 34 35 40 43 47 49 53 57 57 63 65 65 64 64 64 63 62 61 61
36 35 36 37 38 41 39 38 40 37 36 34 36 38 35 30 26 23 21 23 25 26 28 30 30 34 35 39 42 45 47 49 53 57 59 61 65 65 64 65 65 63 63 62
32 30 34 35 38 37 39 40 36 37 30 30 35 32 35 26 23 24 27 28 29 28 28 29 30 33 35 40 44 47 47 48 51 55 58 60 60 64 66 65 64 64 63 62
34 34 33 35 35 33 35 34 33 32 31 31 32 33 37 32 30 28 30 30 30 29 28 28 30 31 33 38 40 45 47 48 50 53 56 58 61 61 64 65 65 64 63 62
35 34 30 32 35 36 36 34 33 30 28 32 30 31 36 36 37 35 33 33 32 33 31 28 28 30 33 37 38 40 46 49 51 52 54 56 58 61 63 64 64 64 63 63
34 32 28 27 31 33 32 34 35 33 32 30 29 31 37 38 36 33 33 35 35 35 34 33 31 29 31 35 37 38 41 44 50 51 53 55 56 57 60 61 64 64 63 62
33 32 29 25 25 28 28 29 33 32 29 29 30 31 36 36 35 32 32 31 29 27 23 28 28 28 27 28 31 33 37 39 44 50 51 53 54 54 54 55 58 61 64 62
31 26 24 23 18 19 21 18 22 28 28 28 26 27 25 27 31 33 31 30 25 23 23 25 25 25 26 27 30 32 34 37 40 45 50 51 54 53 52 52 52 59 56 58
24 24 21 19 14 13 14 15 16 15 17 23 24 23 23 25 29 29 26 22 21 18 21 21 22 23 25 26 27 32 36 38 41 42 48 50 52 51 50 49 49 50 49 50
23 22 20 13 14 16 17 22 14 10 13 15 15 17 19 26 26 26 24 21 16 15 17 19 19 21 25 27 28 32 36 39 39 41 46 49 50 50 50 47 47 47 48 48
26 24 21 16 12 11 10 16 16 15 14 15 16 18 22 26 26 25 21 16 16 14 15 19 22 23 26 28 28 32 34 37 39 40 45 48 49 47 47 47 46 45 44 45
22 24 21 17 11 8 7 8 14 14 10 12 13 15 24 22 17 16 16 17 18 20 21 21 22 24 24 26 28 30 33 36 38 39 44 47 46 45 45 45 44 43 43 42
21 24 24 19 14 6 13 17 19 17 7 17 17 14 13 12 13 14 18 22 24 23 20 20 21 22 23 25 28 31 31 33 37 39 43 47 44 43 44 44 41 41 40 38
23 25 23 20 18 14 18 18 21 13 19 22 21 20 20 19 18 23 25 24 24 22 21 22 22 22 23 25 27 30 31 31 37 40 44 44 41 41 42 41 38 37 35 35
21 22 21 21 20 14 22 21 17 25 23 24 23 24 26 27 27 27 25 24 23 22 21 21 22 23 25 26 28 28 30 32 38 39 43 41 40 38 38 37 35 35 35 34
19 21 23 20 22 25 28 27 27 26 27 27 27 26 28 30 28 28 28 28 26 24 24 23 22 24 27 28 28 30 33 35 39 41 41 38 37 34 35 35 34 35 35 36
21 22 22 17 19 20 24 25 25 26 27 28 27 27 30 32 31 31 32 32 31 29 27 27 26 26 28 30 29 33 35 37 40 41 37 35 34 34 34 35 36 36 37 37
19 22 16 16 16 17 20 24 27 27 28 27 25 27 28 30 32 32 32 32 32 31 30 30 30 30 31 32 34 35 36 39 41 38 36 35 35 35 34 34 35 34 34 37
15 13 17 17 22 22 21 28 28 27 26 26 26 26 27 29 30 30 31 32 31 33 33 33 33 34 34 35 36 36 38 40 40 36 35 35 34 34 33 32 32 33 33 33
Lifted_Index
2 2 2 2 2 2 2 3 3 3 3 4 4 5 4 4 4 4 4 4 3 3 3 3 3 4 4 3 2 1 -2 -3 -4 -4 -3 -3 -3 -3 -3 -2 -2 -2 -2 -2
2 2 2 2 2 2 2 3 3 3 3 3 4 4 5 4 4 4 4 4 4 3 3 3 3 4 4 4 3 1 -1 -3 -3 -3 -3 -2 -2 -2 -2 -2 -2 -2 -2 -2
2 2 2 1 2 2 2 3 3 2 2 3 3 4 4 5 4 4 4 4 4 3 3 3 3 4 4 4 4 2 0 -2 -3 -3 -2 -2 -2 -2 -1 -1 -1 -2 -2 -2
2 2 1 1 1 2 2 2 1 1 2 2 3 3 4 5 4 4 4 4 4 4 4 4 4 4 4 4 4 3 1 -1 -2 -3 -2 -1 -1 -1 -1 -1 -1 -1 -1 -1
1 1 0 1 1 1 1 1 1 1 1 2 2 3 4 4 4 4 4 4 4 4 4 5 5 4 4 4 4 3 2 -0 -2 -2 -2 -1 -1 -1 -1 -1 -1 -1 -1 -1
1 0 -0 -0 0 -0 -0 -0 -0 0 0 1 2 3 3 4 3 4 4 4 4 4 4 4 5 5 5 4 4 3 2 0 -1 -2 -2 -2 -1 -1 -1 -1 -1 -1 -1 -1
0 0 -0 -1 -1 -1 -1 -1 -1 -1 -0 1 1 2 3 3 3 4 4 4 4 4 4 4 5 5 5 5 4 4 3 2 0 -1 -2 -2 -2 -2 -1 -1 -1 -1 -1 -1
-0 -0 -0 -0 -0 -1 -1 -1 -1 -1 -0 0 0 1 2 3 3 3 4 4 5 5 5 6 6 6 6 6 5 5 4 3 1 -0 -1 -2 -3 -2 -2 -2 -2 -1 -1 -1
-0 -0 0 1 0 -0 -1 -1 -1 -1 -1 -0 -0 0 1 2 2 2 4 5 7 8 8 8 8 8 8 7 6 6 5 4 2 1 -0 -1 -2 -3 -3 -3 -3 -2 -2 -2
-0 -0 1 1 1 -0 -1 -1 -1 -1 -1 -1 -0 -0 0 1 2 3 5 7 9 11 11 11 10 10 10 9 8 7 6 5 4 2 1 -0 -1 -3 -3 -3 -3 -3 -2 -2
1 1 1 2 2 1 -0 -0 -0 -0 -0 -1 -0 0 1 2 3 4 6 8 10 11 12 12 11 11 11 10 9 8 7 6 5 4 2 1 -0 -2 -3 -4 -3 -3 -3 -2
3 3 2 2 3 2 2 1 2 2 1 1 1 2 3 4 5 6 7 8 9 10 11 12 11 11 11 10 10 9 8 6 5 4 3 2 1 -1 -2 -3 -3 -3 -3 -2
4 3 3 3 3 3 3 3 4 4 3 2 2 3 4 5 5 5 6 7 8 10 11 11 11 11 11 11 11 10 9 8 6 5 4 3 2 1 -1 -2 -3 -3 -3 -3
3 3 2 2 3 3 4 4 4 4 3 3 3 3 4 4 4 5 6 7 8 10 11 11 11 11 11 11 11 11 11 10 8 6 5 4 3 3 1 -1 -2 -3 -3 -3
3 2 2 2 2 3 3 4 4 3 3 3 3 4 4 4 4 5 6 7 8 9 10 11 11 11 11 11 11 11 11 11 9 8 6 5 4 4 3 1 -1 -2 -2 -2
3 2 2 2 2 3 3 3 3 3 3 3 3 4 3 3 4 4 5 6 7 8 9 10 11 11 11 11 11 11 11 10 9 8 6 5 5 5 3 2 1 0 -0 -0
3 3 2 2 2 2 2 2 3 3 3 3 3 3 3 2 3 4 5 5 7 8 9 10 10 11 12 12 12 11 10 10 9 8 6 5 5 5 4 3 2 1 1 1
2 2 2 2 2 2 2 2 3 3 2 3 3 3 2 2 3 4 5 6 7 8 9 9 9 10 11 11 11 10 10 9 9 8 7 6 5 5 4 4 3 3 2 2
2 2 2 2 2 1 2 2 2 2 2 3 3 3 3 3 3 4 5 6 7 7 8 8 8 9 10 10 10 10 9 9 9 8 7 6 5 4 4 4 4 3 4 4
1 1 1 1 1 1 1 1 2 2 2 2 2 3 3 3 3 3 4 5 5 6 6 7 7 8 8 9 9 9 9 9 8 7 6 5 4 4 3 3 3 3 3 3
0 1 1 1 0 0 1 1 1 1 2 2 2 3 3 3 3 3 3 4 4 5 5 6 6 7 7 7 8 8 8 8 7 6 6 4 3 2 2 3 3 3 3 2
0 0 0 0 0 0 0 1 1 1 1 1 2 2 2 2 2 2 3 3 3 4 4 5 5 6 7 7 7 7 8 7 6 6 5 3 2 2 2 2 2 2 2 2
0 0 0 0 0 0 0 1 1 1 1 1 1 1 2 2 2 2 2 2 2 3 3 3 4 5 6 6 6 7 7 7 6 5 4 3 2 3 3 3 2 3 3 3
0 0 0 0 0 0 1 1 1 1 1 1 1 2 2 2 2 2 2 2 2 2 2 2 3 4 5 5 5 6 6 6 6 5 4 3 3 3 3 4 3 3 4 4
0 0 0 0 0 1 1 1 1 1 1 2 2 3 3 3 3 2 2 2 2 2 2 2 3 3 4 4 4 4 4 4 4 3 2 2 3 3 4 4 4 5 5 5
0 0 0 0 1 1 1 1 1 1 1 2 3 3 3 3 3 3 3 3 2 2 2 2 3 3 4 4 4 3 3 2 2 2 1 2 2 3 4 4 5 5 6 6